This demonstration page uses our WeatherBlox Daily Observations layout. Learn more.

Left ArrowRight Arrow

39.51506, -84.39828

Hourly Observations for June 29, 2022

Temp ( °F °C ) Dew Point ( °F °C ) Humidity (%) Winds ( mph kmh ) Pressure ( in mb ) Visibility ( mi km ) Precip ( " mm )
12:15 am 00:15 Clear 56 13.3 52 11.2 87 87 Calm 30.22 1023 10 16 0.00 0.00
12:35 am 00:35 Clear 54 12.1 51 10.8 92 92 Calm 30.22 1023 10 16 0.00 0.00
12:55 am 00:55 Clear 55 12.6 53 11.7 94 94 Calm 30.22 1023 10 16 0.00 0.00
1:15 am 01:15 Clear 55 12.7 53 11.5 92 92 Calm 30.22 1023 10 16 0.00 0.00
1:35 am 01:35 Clear 54 12 53 11.4 96 96 Calm 30.22 1023 10 16 0.00 0.00
1:55 am 01:55 Clear 52 11.3 52 11 98 98 Calm 30.24 1024 10 16 0.00 0.00
2:15 am 02:15 Clear 52 11 51 10.5 97 97 WNW 3 6 30.24 1024 10 16 0.00 0.00
2:35 am 02:35 Clear 52 11 52 11 100 100 Calm 30.24 1024 10 16 0.00 0.00
2:55 am 02:55 Clear 50 10 50 10 100 100 Calm 30.24 1024 10 16 0.00 0.00
3:15 am 03:15 Clear 52 11 N/A N/A Calm 30.24 1024 10 16 0.00 0.00
3:35 am 03:35 Clear 52 11 N/A N/A Calm 30.23 1024 10 16 0.00 0.00
3:55 am 03:55 Clear 50 10 N/A N/A Calm 30.23 1024 10 16 0.00 0.00
4:15 am 04:15 Clear 50 10 N/A N/A Calm 30.23 1024 10 16 0.00 0.00
4:35 am 04:35 Clear 50 10 N/A N/A Calm 30.23 1024 10 16 0.00 0.00
4:55 am 04:55 Mostly Cloudy with Fog 48 9 N/A N/A WNW 3 6 30.24 1024 1 1 0.00 0.00
5:15 am 05:15 Mostly Cloudy with Fog 46 8 N/A N/A Calm 30.24 1024 1 1 0.00 0.00
5:35 am 05:35 Mostly Cloudy with Fog 48 9 N/A N/A Calm 30.24 1024 0 0 0.00 0.00
5:55 am 05:55 Partly Cloudy 50 10 N/A N/A Calm 30.25 1024 10 16 0.00 0.00
6:15 am 06:15 Sunny 50 10 N/A N/A Calm 30.25 1024 10 16 0.00 0.00
6:35 am 06:35 Sunny 50 10 N/A N/A WNW 3 6 30.26 1025 10 16 0.00 0.00
6:55 am 06:55 Sunny 50 10 N/A N/A Calm 30.26 1025 10 16 0.00 0.00
7:15 am 07:15 Sunny 50 10 N/A N/A Calm 30.26 1025 10 16 0.00 0.00
7:35 am 07:35 Sunny 54 12 N/A N/A Calm 30.25 1025 10 16 0.00 0.00
7:55 am 07:55 Sunny 55 13 N/A N/A Calm 30.25 1024 7 11 0.00 0.00
8:55 am 08:55 Sunny 64 17.5 54 12.4 72 72 S 3 6 30.26 1025 10 16 0.00 0.00
9:15 am 09:15 Sunny 66 19 54 12.4 66 66 S 5 7 30.26 1025 10 16 0.00 0.00
9:35 am 09:35 Sunny 69 20.3 54 12 59 59 SW 3 6 30.25 1025 10 16 0.00 0.00
9:55 am 09:55 Sunny 70 21.2 53 11.9 56 56 S 5 7 30.25 1024 10 16 0.00 0.00
10:15 am 10:15 Sunny 73 22.5 53 11.4 50 50 SSW 5 7 30.25 1024 10 16 0.00 0.00
10:35 am 10:35 Sunny 75 24 51 10.3 42 42 SW 6 9 30.25 1024 10 16 0.00 0.00
10:55 am 10:55 Sunny 76 24.5 48 9 37 37 SSW 7 11 30.25 1025 10 16 0.00 0.00
11:15 am 11:15 Sunny 78 25.5 49 9.5 36 36 W 5 7 30.24 1024 10 16 0.00 0.00
11:35 am 11:35 Sunny 78 25.6 50 9.9 37 37 WSW 8 13 30.24 1024 10 16 0.00 0.00
11:55 am 11:55 Sunny 78 25.4 49 9.4 36 36 WNW 5 7 30.24 1024 10 16 0.00 0.00
12:15 pm 12:15 Sunny 78 25.7 49 9.5 36 36 S 7 11 30.24 1024 10 16 0.00 0.00
12:35 pm 12:35 Sunny 79 26.2 48 9.1 34 34 S 5 7 30.24 1024 10 16 0.00 0.00
12:55 pm 12:55 Sunny 80 26.5 51 10.3 36 36 S 7 11 30.24 1024 10 16 0.00 0.00
1:15 pm 13:15 Sunny 80 26.7 49 9.5 34 34 SW 6 9 30.24 1024 10 16 0.00 0.00
1:35 pm 13:35 Sunny 81 27.1 48 8.8 32 32 SW 8 13 30.23 1024 10 16 0.00 0.00
1:55 pm 13:55 Sunny 81 27.3 48 9.1 32 32 SE 3 6 30.23 1024 10 16 0.00 0.00
2:15 pm 14:15 Sunny 82 27.5 47 8.2 30 30 Calm 30.23 1024 10 16 0.00 0.00
2:35 pm 14:35 Sunny 82 27.6 47 8.5 30 30 SE 5 7 30.22 1023 10 16 0.00 0.00
2:55 pm 14:55 Sunny 83 28.1 47 8.5 29 29 SSE 3 6 30.22 1023 10 16 0.00 0.00
3:15 pm 15:15 Sunny 84 28.7 48 9.1 29 29 W 7 11 30.20 1023 10 16 0.00 0.00
3:35 pm 15:35 Sunny 82 28 46 7.7 28 28 WNW 5 7 30.21 1023 10 16 0.00 0.00
3:55 pm 15:55 Sunny 84 28.7 47 8.1 27 27 Calm 30.19 1022 10 16 0.00 0.00
4:15 pm 16:15 Sunny 84 29 46 7.5 26 26 SW 3 6 30.19 1022 10 16 0.00 0.00
4:35 pm 16:35 Sunny 85 29.4 48 8.8 28 28 WSW 7 11 30.19 1022 10 16 0.00 0.00
4:55 pm 16:55 Sunny 84 28.8 47 8.1 27 27 Calm 30.18 1022 10 16 0.00 0.00
5:15 pm 17:15 Sunny 84 29 46 7.8 26 26 WSW 5 7 30.18 1022 10 16 0.00 0.00
5:35 pm 17:35 Sunny 84 29 47 8.3 27 27 WSW 8 13 30.18 1022 10 16 0.00 0.00
5:55 pm 17:55 Sunny 84 29 49 9.2 29 29 NW 7 11 30.17 1022 10 16 0.00 0.00
6:15 pm 18:15 Sunny 84 29 47 8.6 28 28 SW 6 9 30.17 1022 10 16 0.00 0.00
6:35 pm 18:35 Sunny 84 28.8 47 8.6 28 28 WSW 3 6 30.16 1021 10 16 0.00 0.00
6:55 pm 18:55 Sunny 84 28.7 48 9.1 29 29 SSW 5 7 30.16 1021 10 16 0.00 0.00
7:15 pm 19:15 Sunny 83 28.6 49 9.2 30 30 W 3 6 30.16 1021 10 16 0.00 0.00
7:35 pm 19:35 Sunny 83 28.1 51 10.6 34 34 W 5 7 30.17 1022 10 16 0.00 0.00
7:55 pm 19:55 Sunny 82 27.7 53 11.6 37 37 W 3 6 30.17 1022 10 16 0.00 0.00
8:15 pm 20:15 Sunny 80 26.5 57 14 46 46 WSW 5 7 30.17 1022 10 16 0.00 0.00
8:35 pm 20:35 Sunny 77 24.8 60 15.3 56 56 W 3 6 30.17 1022 10 16 0.00 0.00
8:55 pm 20:55 Sunny 72 22 60 15.5 67 67 W 3 6 30.19 1022 10 16 0.00 0.00
9:15 pm 21:15 Clear 70 21.1 61 15.9 72 72 Calm 30.19 1022 10 16 0.00 0.00
9:35 pm 21:35 Clear 69 20.8 61 16.1 75 75 ENE 3 6 30.20 1023 10 16 0.00 0.00
9:55 pm 21:55 Clear 66 18.7 60 15.4 81 81 NNW 3 6 30.21 1023 10 16 0.00 0.00
10:15 pm 22:15 Clear 64 17.9 59 14.9 83 83 WNW 3 6 30.22 1023 10 16 0.00 0.00
10:35 pm 22:35 Clear 64 17.7 58 14.7 83 83 Calm 30.22 1023 10 16 0.00 0.00
10:55 pm 22:55 Clear 63 17.3 59 14.9 86 86 Calm 30.23 1024 10 16 0.00 0.00
11:15 pm 23:15 Clear 64 17.7 59 14.9 84 84 Calm 30.23 1024 10 16 0.00 0.00
11:35 pm 23:35 Clear 62 16.9 59 15.1 89 89 Calm 30.24 1024 10 16 0.00 0.00
11:55 pm 23:55 Clear 62 16.7 59 15 90 90 Calm 30.24 1024 10 16 0.00 0.00

Powered by AerisWeather